Location: Newark
(48.0000°N, 67.0000°E)
Time: 05:25:12
(UTC+00:00)

DUCHIFAT 1 - Pass Details

Date: 02 April 2020
Orbit: 586 x 604 km, 97.9° (Epoch: 27 May)

Event Time Altitude Azimuth Distance (km) Brightness Sun altitude
Rises 22:17:09 0° 358° (N) 2,845 ? -25.9°
Reaches altitude 10° 22:20:08 10° 335° (NNW) 1,933 ? -25.6°
Enters shadow 22:21:09 13° 321° (NW) 1,734 ? -25.4°
